Zurück zum Katalog

TITAN 34B DEB

LostHEO
NORAD 44434·DEBRIS·🇺🇸 United States

Gestartet Apr 24, 1981 von Vandenberg Space Force Base

Loading…

Nächste Überflüge (nächste 24 Stunden)

TLE

VeraltetSource: Space-Track

Epoche: Jul 7, 2021, 17:24 UTC

1 44434U 81038H   21188.72529032  .00003740  00000-0  87767-3 0  9991
2 44434  63.0993  35.5458 6512584 258.5710  26.8097  3.30018286 23727

Verfolge TITAN 34B DEB in Echtzeit mit AllMySat

Download on the App Store